Weather observations for the past three days for
Crestview, Sikes Airport
Imperial (Metric)
Date Time (cdt) Wind (mph) Vis. (mi.) Weather Sky Cond. Temperature (ºF) Relative Humidity Wind Chill (°F) Heat Index (°F) Pressure Precipitation (in)
Air Dwpt 6 hour altimeter (in) sea level (mb) 1 hr 3 hr 6 hr
Max. Min.
25 13:53 Calm 10.00 A Few Clouds FEW040 93 75.9 58% 106 30.13 1019.9
25 12:53 N 5 10.00 Partly Cloudy SCT039 SCT065 91.9 75 91.9 73.9 58% 103 30.15 1020.6
25 11:53 Vrbl 3 10.00 Partly Cloudy SCT032 89.1 75 63% 99 30.16 1021.0
25 09:53 Calm 10.00 Fair CLR 84.9 77 77% 95 30.18 1021.6
25 08:53 Calm 10.00 Mostly Cloudy BKN110 79 75.9 90% 83 30.18 1021.6
25 07:53 E 3 10.00 Mostly Cloudy BKN001 75.9 75 97% 75 30.18 1021.7
25 06:53 Calm 10.00 Mostly Cloudy BKN001 73.9 73 75 73 97% 30.17 1021.4
25 05:53 Calm 0.25 Fog VV001 73.9 73 97% 30.16 1021.0
25 04:53 Calm 0.25 Fog VV001 73.9 73.9 100% 30.16 1020.9
25 03:53 Calm 0.50 Fog VV001 73.9 73 97% 30.15 1020.7
25 02:53 Calm 1.25 Fog/Mist OVC001 73.9 73.9 100% 30.16 1020.9
25 01:53 Calm 2.00 Fog/Mist OVC001 75 73.9 96% 73 30.16 1020.9
25 00:53 Calm 4.00 Fog/Mist SCT001 75 73.9 81 75 96% 73 30.17 1021.3
24 23:53 Calm 5.00 Fog/Mist CLR 75 73.9 96% 73 30.19 1021.9
24 22:53 Calm 8.00 Fair CLR 75.9 75 97% 75 30.19 1021.9
24 21:53 Calm 10.00 Fair CLR 78.1 75.9 93% 81 30.18 1021.5
24 20:53 Calm 10.00 Fair CLR 78.1 75.9 93% 81 30.16 1020.8
24 19:53 Calm 10.00 Thunderstorm in Vicinity CLR 79 75.9 90% 83 30.14 1020.3
24 18:53 Calm 10.00 A Few Clouds FEW015 81 77 91 75.9 88% 88 30.13 1020.0 0.78
24 17:53 N 7 10.00 Fair CLR 84 77 80% 94 30.12 1019.7
24 16:53 W 5 10.00 Fair CLR 82 78.1 88% 91 30.13 1019.8
24 15:53 Calm 10.00 Thunderstorm in Vicinity FEW055 SCT090 78.1 77 97% 81 30.12 1019.8 0.18 0.78
24 14:53 E 6 0.75 Thunderstorm Light Rain Fog/Mist SCT015 BKN036 OVC045 77 75 94% 78 30.14 1020.3 0.6
24 13:53 SW 5 10.00 Thunderstorm in Vicinity SCT036 BKN046 BKN090 87.1 73.9 65% 95 30.13 1019.7
24 12:53 S 3 10.00 Fair CLR 89.1 75 90 75.9 63% 99 30.12 1019.5 0.01
24 11:53 Calm 10.00 Mostly Cloudy FEW023 SCT035 BKN080 86 75 70% 95 30.15 1020.4 0.01
24 10:53 SE 5 10.00 Partly Cloudy FEW023 SCT049 SCT065 87.1 78.1 75% 100 30.15 1020.7
24 09:53 Vrbl 3 10.00 Partly Cloudy FEW020 SCT026 SCT044 86 77 75% 97 30.16 1021.0
24 08:53 Calm 10.00 Fair CLR 84 77 80% 94 30.16 1020.9
24 07:53 E 5 10.00 Fair CLR 79 75.9 90% 83 30.16 1020.9
24 06:53 Calm 10.00 Fair CLR 75.9 75 77 75 97% 75 30.15 1020.5 0.01
24 05:53 Calm 10.00 Fair CLR 75 73.9 96% 73 30.14 1020.2
24 04:53 Calm 10.00 Fair CLR 75 73.9 96% 73 30.14 1020.2
24 03:53 E 3 10.00 Light Rain CLR 75.9 73.9 94% 75 30.13 1019.9 0.01 0.01
24 02:53 Calm 10.00 Fair CLR 75.9 73.9 94% 75 30.14 1020.3
24 01:53 Calm 10.00 Fair CLR 75.9 73.9 94% 75 30.14 1020.3
24 00:53 Calm 10.00 Fair CLR 77 75 84 77 94% 78 30.15 1020.7
23 23:53 Calm 10.00 Fair CLR 77 75 94% 78 30.15 1020.6
23 22:53 Calm 10.00 Fair CLR 78.1 75.9 93% 81 30.17 1021.3
23 21:53 Calm 10.00 Fair CLR 79 75.9 90% 83 30.15 1020.6
23 20:53 Calm 10.00 Fair CLR 79 75.9 90% 83 30.14 1020.1
23 19:53 Calm 10.00 Fair CLR 81 78.1 91% 89 30.12 1019.4
23 18:53 Calm 10.00 Partly Cloudy SCT032 84 78.1 91.9 82.9 82% 95 30.09 1018.7 0.01
23 17:53 Calm 10.00 A Few Clouds FEW037 86 78.1 77% 98 30.08 1018.2
23 16:53 Calm 10.00 Fair CLR 87.1 78.1 75% 100 30.08 1018.0
23 15:53 N 7 10.00 A Few Clouds FEW040 87.1 75.9 70% 98 30.09 1018.6 0.01
23 14:53 Calm 10.00 Fair CLR 87.1 77 72% 99 30.08 1018.3
23 13:53 Calm 10.00 A Few Clouds FEW070 89.1 75.9 65% 100 30.09 1018.4 0.01
23 12:53 Vrbl 5 10.00 Overcast BKN039 OVC048 86 75 91.9 73.9 70% 95 30.1 1019.0
23 11:53 E 3 10.00 Fair CLR 91.9 75 58% 103 30.11 1019.2
23 10:53 E 6 10.00 A Few Clouds FEW038 90 73.9 59% 99 30.13 1019.7
23 09:53 Vrbl 3 10.00 Fair CLR 87.1 73 63% 95 30.12 1019.5
23 08:53 Calm 10.00 Fair CLR 84 75.9 77% 93 30.11 1019.3
23 07:53 Calm 10.00 Fair CLR 81 75.9 85% 87 30.11 1019.0
23 06:53 Calm 10.00 Fair CLR 73.9 72 73.9 71.1 94% 30.09 1018.6
23 05:53 Calm 10.00 Fair CLR 72 70 94% 30.08 1018.3
23 04:53 Calm 10.00 Fair CLR 72 70 94% 30.08 1018.1
23 03:53 Calm 10.00 Fair CLR 72 71.1 97% 30.07 1017.7
23 02:53 Calm 10.00 Fair CLR 73 71.1 94% 30.06 1017.4
23 01:53 Calm 10.00 Fair CLR 73 72 96% 30.06 1017.7
23 00:53 Calm 10.00 Fair CLR 73.9 73 82.9 73.9 97% 30.07 1017.8
22 23:53 E 3 10.00 Fair CLR 73.9 73 97% 30.07 1017.8
22 22:53 Calm 8.00 Fair CLR 75.9 73 91% 76 30.08 1018.1
22 21:53 Calm 6.00 Fog/Mist CLR 77 73.9 90% 78 30.07 1017.7
22 20:53 Calm 8.00 A Few Clouds FEW031 77 73.9 90% 78 30.06 1017.4
22 19:53 E 5 10.00 Overcast BKN034 OVC042 78.1 73 85% 81 30.05 1017.2
22 18:53 Vrbl 7 9.00 Partly Cloudy SCT034 82.9 73.9 89.1 82.9 74% 89 30.02 1016.2
22 17:53 W 5 10.00 A Few Clouds FEW042 88 75.9 68% 99 29.99 1015.3
22 16:53 Vrbl 3 10.00 A Few Clouds FEW035 88 77 70% 100 30 1015.3
22 15:53 Vrbl 3 10.00 Fair CLR 84.9 75 72% 93 30.01 1015.8
22 14:53 Calm 10.00 Mostly Cloudy BKN022 BKN042 86 75.9 72% 96 30.03 1016.5
Date Time (cdt) Wind (mph) Vis. (mi.) Weather Sky Cond. Air Dwpt Max. Min. Relative Humidity Wind Chill (°F) Heat Index (°F) altimeter (in) sea level (mb) 1 hr 3 hr 6 hr
6 hour
Temperature (ºF) Pressure Precipitation (in)